BRU455 UMMS-ULLI

Flight info

Callsign BRU455
Flight time N/A
Altitude 36000
Route AGNEF N743 DITBI T782 KOLET
Aircraft B738/M-SDE2E3FGHIRWXY/LB1

Departure

Time 2026-04-27 15:18
Airport Minsk National Airport (UMMS)

Arrival

Time N/A
Airport Pulkovo Airport (ULLI)
Time Latitude Longitude Altitude Speed Heading
2026-04-27 14:40 53.88772 28.03622 652 ft 0 kts 319°
2026-04-27 15:11 53.88773 28.03620 652 ft 1 kts 319°
2026-04-27 15:11 53.88800 28.03580 652 ft 7 kts 309°
2026-04-27 15:11 53.88788 28.03496 652 ft 9 kts 231°
2026-04-27 15:11 53.88725 28.03374 652 ft 22 kts 229°
2026-04-27 15:12 53.88655 28.03301 651 ft 11 kts 156°
2026-04-27 15:12 53.88574 28.03416 651 ft 15 kts 139°
2026-04-27 15:12 53.88524 28.03537 652 ft 11 kts 80°
2026-04-27 15:12 53.88572 28.03651 654 ft 13 kts 48°
2026-04-27 15:13 53.88659 28.03818 655 ft 21 kts 47°
2026-04-27 15:13 53.88764 28.04019 659 ft 23 kts 49°
2026-04-27 15:13 53.88877 28.04242 662 ft 24 kts 49°
2026-04-27 15:13 53.88981 28.04442 669 ft 20 kts 47°
2026-04-27 15:14 53.89062 28.04596 674 ft 17 kts 50°
2026-04-27 15:14 53.89140 28.04748 681 ft 16 kts 48°
2026-04-27 15:14 53.89191 28.04877 686 ft 11 kts 90°
2026-04-27 15:14 53.89121 28.05011 688 ft 16 kts 140°
2026-04-27 15:15 53.89027 28.05148 686 ft 20 kts 138°
2026-04-27 15:15 53.88889 28.05352 687 ft 31 kts 139°
2026-04-27 15:15 53.88699 28.05638 689 ft 41 kts 140°
2026-04-27 15:15 53.88481 28.05964 691 ft 41 kts 140°
2026-04-27 15:16 53.88272 28.06263 694 ft 28 kts 137°
2026-04-27 15:16 53.88122 28.06488 688 ft 30 kts 139°
2026-04-27 15:16 53.87963 28.06730 678 ft 23 kts 137°
2026-04-27 15:16 53.87946 28.06869 673 ft 13 kts 52°
2026-04-27 15:17 53.88012 28.06988 669 ft 10 kts 45°
2026-04-27 15:17 53.88047 28.07002 671 ft 7 kts 339°
2026-04-27 15:17 53.88082 28.06958 673 ft 5 kts 318°
2026-04-27 15:17 53.88173 28.06822 679 ft 45 kts 319°
2026-04-27 15:18 53.88597 28.06195 692 ft 115 kts 318°
2026-04-27 15:18 53.89341 28.05077 772 ft 164 kts 319°
2026-04-27 15:18 53.90180 28.03858 1695 ft 160 kts 320°
2026-04-27 15:18 53.91031 28.02629 2422 ft 170 kts 320°
2026-04-27 15:19 53.91925 28.01326 3177 ft 171 kts 320°
2026-04-27 15:19 53.92859 27.99979 3698 ft 185 kts 320°
2026-04-27 15:19 53.93826 27.98543 4370 ft 192 kts 319°
2026-04-27 15:19 53.94828 27.97022 5176 ft 193 kts 320°
2026-04-27 15:20 53.95991 27.95879 5696 ft 208 kts 346°
2026-04-27 15:20 53.97457 27.96083 6366 ft 223 kts 11°
2026-04-27 15:20 53.98933 27.96941 7118 ft 228 kts 13°
2026-04-27 15:20 54.00440 27.97801 7781 ft 233 kts 12°
2026-04-27 15:21 54.01985 27.98610 7969 ft 234 kts 11°
2026-04-27 15:21 54.03532 27.99411 7956 ft 233 kts 14°
2026-04-27 15:21 54.04978 28.00697 7940 ft 241 kts 33°
2026-04-27 15:21 54.06015 28.03056 7942 ft 257 kts 60°
2026-04-27 15:22 54.06413 28.06045 7944 ft 269 kts 80°
2026-04-27 15:22 54.06437 28.08466 7939 ft 270 kts 84°
2026-04-27 15:22 54.06405 28.11662 7945 ft 272 kts 85°
2026-04-27 15:22 54.06370 28.14886 7937 ft 270 kts 84°
2026-04-27 15:23 54.06346 28.18067 7935 ft 269 kts 84°
2026-04-27 15:23 54.06334 28.21230 7943 ft 269 kts 82°
2026-04-27 15:23 54.06438 28.24416 7977 ft 284 kts 78°
2026-04-27 15:23 54.06643 28.27854 8600 ft 292 kts 77°
2026-04-27 15:24 54.06862 28.31254 9426 ft 293 kts 77°
2026-04-27 15:24 54.07006 28.33529 9975 ft 294 kts 78°
2026-04-27 15:24 54.07159 28.35998 10514 ft 296 kts 77°
2026-04-27 15:24 54.07532 28.39405 11278 ft 294 kts 66°
2026-04-27 15:25 54.08371 28.42548 11804 ft 299 kts 53°
2026-04-27 15:25 54.09523 28.45617 12252 ft 312 kts 50°
2026-04-27 15:25 54.10766 28.48724 12679 ft 327 kts 49°
2026-04-27 15:25 54.12249 28.51642 13369 ft 328 kts 38°
2026-04-27 15:26 54.14071 28.53960 14122 ft 328 kts 25°
2026-04-27 15:26 54.16076 28.55678 14916 ft 329 kts 20°
2026-04-27 15:26 54.18191 28.57223 15760 ft 331 kts 18°
2026-04-27 15:26 54.20300 28.58719 16564 ft 333 kts 17°
2026-04-27 15:27 54.22440 28.60274 17346 ft 337 kts 18°
2026-04-27 15:27 54.24582 28.61877 18107 ft 341 kts 18°
2026-04-27 15:27 54.26732 28.63524 18775 ft 345 kts 18°
2026-04-27 15:27 54.28920 28.65220 19491 ft 349 kts 19°
2026-04-27 15:28 54.30893 28.66755 20082 ft 352 kts 18°
2026-04-27 15:28 54.33125 28.68493 20721 ft 356 kts 18°
2026-04-27 15:28 54.35361 28.70238 21376 ft 359 kts 18°
2026-04-27 15:28 54.37178 28.71657 21943 ft 359 kts 18°
2026-04-27 15:29 54.39726 28.73650 22622 ft 362 kts 17°
2026-04-27 15:29 54.42017 28.75443 23221 ft 364 kts 17°
2026-04-27 15:29 54.44313 28.77239 23782 ft 366 kts 17°
2026-04-27 15:29 54.46655 28.78946 24313 ft 367 kts 13°
2026-04-27 15:30 54.49037 28.80286 24854 ft 363 kts
2026-04-27 15:30 54.51515 28.81116 25410 ft 361 kts
2026-04-27 15:30 54.53998 28.81628 25860 ft 363 kts 359°
2026-04-27 15:30 54.56495 28.82000 26364 ft 365 kts 358°
2026-04-27 15:31 54.59030 28.82332 26695 ft 371 kts 358°
2026-04-27 15:31 54.61594 28.82670 27164 ft 374 kts 358°
2026-04-27 15:31 54.64211 28.83028 27518 ft 378 kts 359°
2026-04-27 15:31 54.66840 28.83404 27929 ft 379 kts 359°
2026-04-27 15:32 54.69450 28.83788 28209 ft 384 kts 359°
2026-04-27 15:32 54.72107 28.84185 28588 ft 386 kts 359°
2026-04-27 15:32 54.74797 28.84596 29032 ft 386 kts 359°
2026-04-27 15:32 54.77496 28.85010 29340 ft 389 kts 359°
2026-04-27 15:33 54.80186 28.85422 29635 ft 392 kts 359°
2026-04-27 15:33 54.82933 28.85844 29948 ft 396 kts 359°
2026-04-27 15:33 54.85647 28.86262 30274 ft 398 kts 359°
2026-04-27 15:33 54.88410 28.86688 30520 ft 401 kts 359°
2026-04-27 15:34 54.91199 28.87115 30737 ft 406 kts 360°
2026-04-27 15:34 54.94026 28.87553 31085 ft 406 kts 360°
2026-04-27 15:34 54.96801 28.87986 31479 ft 405 kts
2026-04-27 15:34 54.99585 28.88421 31835 ft 405 kts
2026-04-27 15:35 55.02377 28.88858 32176 ft 405 kts
2026-04-27 15:35 55.05180 28.89297 32511 ft 405 kts
2026-04-27 15:35 55.07972 28.89732 32790 ft 406 kts
2026-04-27 15:35 55.10789 28.90172 33076 ft 407 kts
2026-04-27 15:36 55.13623 28.90614 33344 ft 409 kts
2026-04-27 15:36 55.16449 28.91055 33649 ft 410 kts
2026-04-27 15:36 55.19284 28.91498 33959 ft 411 kts
2026-04-27 15:36 55.22116 28.91943 34276 ft 412 kts
2026-04-27 15:37 55.24968 28.92391 34560 ft 413 kts
2026-04-27 15:37 55.27826 28.92847 34852 ft 414 kts
2026-04-27 15:37 55.30673 28.93327 35151 ft 414 kts
2026-04-27 15:37 55.33499 28.93823 35410 ft 415 kts
2026-04-27 15:38 55.36380 28.94335 35685 ft 415 kts
2026-04-27 15:38 55.39249 28.94847 35859 ft 417 kts
2026-04-27 15:38 55.45071 28.95883 35859 ft 417 kts
2026-04-27 15:39 55.50813 28.96926 35861 ft 416 kts
2026-04-27 15:39 55.56553 28.97941 35859 ft 417 kts
2026-04-27 15:40 55.62313 28.98956 35861 ft 417 kts
2026-04-27 15:40 55.68078 28.99978 35863 ft 417 kts
2026-04-27 15:41 55.73817 29.01001 35857 ft 416 kts
2026-04-27 15:41 55.79574 29.02032 35848 ft 417 kts
2026-04-27 15:42 55.85342 29.03068 35853 ft 418 kts
2026-04-27 15:42 55.91092 29.04104 35848 ft 418 kts
2026-04-27 15:43 55.96853 29.05145 35846 ft 419 kts
2026-04-27 15:43 56.02637 29.06194 35845 ft 418 kts
2026-04-27 15:44 56.08416 29.06808 35838 ft 416 kts 359°
2026-04-27 15:44 56.14167 29.06936 35852 ft 417 kts 358°
2026-04-27 15:45 56.19948 29.07039 35860 ft 417 kts 358°
2026-04-27 15:45 56.25729 29.07199 35841 ft 418 kts 359°
2026-04-27 15:46 56.31533 29.07377 35839 ft 417 kts 358°
2026-04-27 15:46 56.37299 29.07507 35835 ft 417 kts 358°
2026-04-27 15:47 56.43068 29.07630 35828 ft 418 kts 358°
2026-04-27 15:47 56.48866 29.07762 35828 ft 418 kts 358°
2026-04-27 15:48 56.54665 29.07899 35828 ft 418 kts 358°
2026-04-27 15:49 56.63341 29.08110 35835 ft 418 kts 359°
2026-04-27 15:49 56.69116 29.08252 35841 ft 418 kts 359°
2026-04-27 15:50 56.74924 29.08395 35843 ft 418 kts 359°
2026-04-27 15:50 56.80723 29.08551 35844 ft 419 kts 359°
2026-04-27 15:51 56.86527 29.08776 35841 ft 419 kts 359°
2026-04-27 15:51 56.92354 29.09021 35841 ft 419 kts 359°
2026-04-27 15:52 56.98136 29.09261 35843 ft 419 kts 359°
2026-04-27 15:52 57.03939 29.09498 35846 ft 419 kts 359°
2026-04-27 15:53 57.09727 29.09731 35839 ft 421 kts 359°
2026-04-27 15:53 57.15562 29.09967 35840 ft 421 kts 359°
2026-04-27 15:54 57.21375 29.10202 35840 ft 419 kts 359°
2026-04-27 15:54 57.27220 29.10438 35833 ft 420 kts 359°
2026-04-27 15:55 57.33018 29.10674 35835 ft 420 kts 359°
2026-04-27 15:55 57.38868 29.10911 35835 ft 421 kts 359°